Home   Weather   Greece   Santorini   Past weeks
Flag for Greece

Past Weather in Santorini, Greece — Yesterday and Last 2 Weeks

Currently: 82 °F. Sunny. (Weather station: Santorini Island, Greece). See more current weather

Past Weather in Santorini — Graph

°F

Santorini Temperature Yesterday

Maximum temperature yesterday: 84 °F (at 2:50 pm)
Minimum temperature yesterday: 75 °F (at 12:20 am)
Average temperature yesterday: 79 °F

High & Low Weather Summary for the Past Weeks

 TemperatureHumidityPressure
High91 °F (Jun 22, 5:20 pm)88% (Jun 21, 5:50 am)29.98 "Hg (Jun 21, 5:50 am)
Low70 °F (Jun 20, 12:20 am)33% (Jun 22, 12:20 pm)29.77 "Hg (Jun 24, 12:50 am)
Average78 °F60%29.87 "Hg
* Reported Jun 16 4:20 pm — Jul 1 4:20 pm, Santorini. Weather by CustomWeather, © 2022

Note: Actual official high and low records may vary slightly from our data, if they occured in-between our weather recording intervals... More about our weather records

Santorini Weather History for the Previous 24 Hours

Scroll right to see more
 ConditionsComfort  
Time TempWeatherWind HumidityBarometerVisibility
4:20 pm
Fri, Jul 1
82 °FSunny.17 mph66%29.83 "Hg10 mi
3:50 pm82 °FSunny.18 mph66%29.83 "Hg10 mi
3:20 pm82 °FSunny.15 mph66%29.83 "Hg10 mi
2:50 pm81 °FSunny.15 mph70%29.83 "Hg10 mi
2:20 pm81 °FSunny.17 mph70%29.86 "Hg10 mi
1:50 pm81 °FSunny.17 mph70%29.86 "Hg10 mi
1:20 pm81 °FSunny.13 mph70%29.86 "Hg10 mi
12:50 pm81 °FSunny.14 mph70%29.86 "Hg10 mi
12:20 pm81 °FSunny.14 mph62%29.86 "Hg10 mi
11:50 am81 °FSunny.17 mph66%29.83 "Hg10 mi
11:20 am81 °FSunny.15 mph66%29.83 "Hg10 mi
10:20 am79 °FSunny.21 mph58%29.83 "Hg10 mi
9:50 am77 °FSunny.20 mph61%29.83 "Hg10 mi
9:20 am77 °FSunny.10 mph69%29.80 "Hg10 mi
8:50 am77 °FSunny.16 mph61%29.83 "Hg10 mi
8:20 am77 °FSunny.16 mph61%29.83 "Hg10 mi
7:50 am77 °FSunny.15 mph69%29.80 "Hg10 mi
7:20 am77 °FSunny.10 mph69%29.80 "Hg10 mi
6:20 am77 °FSunny.10 mph69%29.80 "Hg10 mi
5:50 am77 °FClear.9 mph69%29.80 "Hg10 mi
4:50 am77 °FClear.10 mph69%29.80 "Hg10 mi
3:50 am77 °FClear.10 mph69%29.80 "Hg10 mi
2:20 am77 °FClear.12 mph69%29.80 "Hg10 mi
1:50 am77 °FClear.13 mph69%29.83 "Hg10 mi
1:20 am77 °FClear.15 mph69%29.83 "Hg10 mi
12:50 am77 °FClear.18 mph69%29.83 "Hg10 mi
12:20 am77 °FClear.18 mph69%29.83 "Hg10 mi
11:50 pm
Thu, Jun 30
77 °FClear.18 mph69%29.83 "Hg10 mi
11:20 pm77 °FClear.12 mph69%29.80 "Hg10 mi
10:50 pm77 °FClear.12 mph69%29.80 "Hg10 mi
10:20 pm77 °FClear.15 mph69%29.80 "Hg10 mi
9:50 pm77 °FClear.12 mph69%29.80 "Hg10 mi
9:20 pm77 °FClear.14 mph65%29.80 "Hg10 mi
8:50 pm77 °FClear.14 mph65%29.80 "Hg10 mi
8:20 pm81 °FSunny.14 mph51%29.80 "Hg10 mi
7:50 pm82 °FSunny.18 mph45%29.80 "Hg10 mi
7:20 pm82 °FSunny.18 mph45%29.80 "Hg10 mi
6:50 pm84 °FSunny.20 mph43%29.80 "Hg10 mi
Weather by CustomWeather, © 2022

See weather overview